[[{"header":{"parameterUnit":"m.s-1","parameterCategory":1,"la1":30.2991,"la2":30.254,"lo1":-89.0895,"lo2":-89.0444,"dy":0.0017,"dx":0.0017,"nx":28,"ny":28,"refTime":"2024-06-24T09:00:00:Z","depth":0,"parameterNumber":2,"parameterNumberName":"U-component_of_WINDS"},"data":[0,0,0,0,0,0,0,0,0,0,0,0,0,0,0,0,0,0,0,0,0,0,0,0,0,0,0,0,0,0,0,0,0,0,0,0,0,0,0,0,0,0,0,0,0,0,0,0,0,0,0,0,0,0,0,0,0,0,3.9322,3.9324,0,3.9509,3.9511,3.9513,3.9504,3.9502,3.9499,3.9497,3.9693,3.97,3.9708,0,0,0,0,0,0,0,0,0,0,0,0,0,3.8962,3.8968,3.9322,3.9324,3.9326,3.9508,3.9511,3.9514,3.9505,3.9502,3.9498,3.9495,3.969,3.97,3.9709,0,0,0,0,0,0,0,0,0,0,0,0,0,3.913,3.8971,3.9321,3.9344,3.9348,3.9508,3.9511,3.9514,3.9506,3.9502,3.9498,3.9494,3.9687,3.9699,3.971,3.9861,0,0,3.9745,3.975,0,0,0,0,0,0,0,0,3.9121,3.9144,3.9338,3.9343,3.9347,3.9479,3.9456,3.9631,3.9507,3.9446,3.9496,3.9492,3.9625,3.9642,3.9686,3.9871,3.9879,3.9746,3.9753,3.9758,3.9762,0,0,0,0,0,0,0,3.9109,3.9136,3.9396,3.9341,3.9347,3.9346,3.9366,3.9489,3.9556,3.9451,3.9451,3.9473,3.9627,3.9675,3.969,3.9882,3.9746,3.9756,3.9764,3.9768,4.02,4.0205,0,0,0,0,0,0,3.9092,3.9126,3.939,3.9401,3.9222,3.9356,3.9378,3.9441,3.9554,3.9568,3.9476,3.9471,3.9657,3.9677,3.9697,3.9881,3.9758,3.9769,3.9776,4.0196,4.0201,4.0206,0,0,0,0,0,0,3.9084,3.9116,3.9382,3.9264,3.9298,3.9366,3.9437,3.9447,3.9494,3.9573,3.9586,3.9512,3.9654,3.9681,3.982,3.9888,3.9774,3.9785,4.0191,4.0198,4.0204,4.0251,0,0,0,0,0,0,3.9074,3.9113,3.917,3.9265,3.9304,3.9501,3.9442,3.9453,3.9513,3.951,3.961,3.9623,3.9653,3.9803,3.9832,3.9902,3.9794,4.0185,4.0194,4.0202,4.0244,4.0258,4.0271,0,0,0,0,0,3.9061,3.9177,3.9173,3.9205,3.9377,3.9505,3.9527,3.9558,3.9519,3.9578,3.9628,3.962,3.9876,3.9817,3.985,3.9924,4.0181,4.0191,4.0201,4.0237,4.0256,4.0271,0,0,0,0,0,0,3.909,3.919,3.9186,3.9336,3.9412,3.9503,3.9578,3.9577,3.9666,3.9659,3.9695,3.9718,3.9858,3.9905,3.9838,4.0077,4.0024,4.0041,4.004,4.0058,4.0072,4.0057,3.9804,0,0,0,0,0,3.9113,3.9208,3.9291,3.9415,3.9453,3.9509,3.9566,3.9583,3.9664,3.9696,3.9757,3.9837,3.9935,4.0,4.0095,4.0251,4.0273,4.0318,4.0332,4.0343,4.0357,4.0443,4.0464,4.024,4.024,4.024,0,0,3.9164,3.923,3.9287,3.9422,3.9483,3.9581,3.9536,3.9642,3.9715,3.9713,3.9847,3.9895,3.9987,4.0135,4.0203,4.0179,4.0424,4.0356,4.0364,4.0373,4.0456,4.0477,4.0496,4.0247,4.0246,4.0245,0,0,3.9304,3.9364,3.9474,3.9535,3.9627,3.9663,3.9689,3.9781,3.9812,3.9947,3.9947,4.0036,4.0205,4.027,4.0325,4.0491,4.0486,4.0521,4.0593,4.0676,4.0694,4.071,4.0768,4.0789,4.0535,4.0535,4.0536,0,3.9355,3.9501,3.9531,3.9637,3.9696,3.9697,3.9808,3.9867,3.9986,4.0028,3.9999,4.021,4.0272,4.0435,4.0475,4.052,4.0552,4.0509,4.0689,4.0705,4.072,4.0776,4.0798,4.0539,4.0539,4.0538,4.0538,0,3.9559,3.9661,3.9739,3.9851,3.9919,4.0028,4.0075,4.0141,4.0152,4.0192,4.033,4.0405,4.0514,4.0555,4.0568,4.072,4.0702,4.068,4.0628,4.0744,4.0798,4.082,4.0544,4.0543,4.0542,4.0541,0,0,3.9723,3.985,3.9878,3.9928,4.003,4.0109,4.0219,4.0324,4.038,4.0462,4.0555,4.0697,4.0678,4.0741,4.0761,4.0835,4.096,4.0804,4.0807,4.083,4.1132,4.1147,4.1171,4.0958,4.0962,4.0966,4.1124,0,3.9874,4.0065,4.0094,4.0263,4.0357,4.0359,4.0454,4.0527,4.0568,4.0655,4.07,4.08,4.0767,4.0805,4.0878,4.0929,4.1021,4.0919,4.1045,4.105,4.1021,4.1199,4.1215,4.1361,4.1145,4.1149,4.1152,0,4.0075,4.016,4.0337,4.0425,4.0466,4.055,4.0649,4.0732,4.0815,4.084,4.0909,4.0921,4.1036,4.0978,4.1137,4.1066,4.1121,4.1154,4.116,4.1173,4.1107,4.1215,4.1408,4.1429,4.1185,4.1182,4.118,0,4.0175,4.0335,4.0461,4.0505,4.0611,4.067,4.0717,4.0796,4.0858,4.0945,4.0985,4.1086,4.1141,4.1219,4.1258,4.1213,4.1414,4.136,4.1438,4.1437,4.1479,4.1476,4.1682,4.1516,4.1516,4.1515,4.1515,0,4.034,4.0448,4.0507,4.0585,4.0707,4.074,4.086,4.0906,4.0977,4.1065,4.1074,4.1156,4.1203,4.1293,4.1325,4.1451,4.1477,4.15,4.1507,4.1499,4.1495,4.1534,4.1524,4.1521,4.152,4.1519,4.1518,0,4.0472,4.0516,4.0654,4.0742,4.0767,4.0853,4.0929,4.1006,4.1045,4.1156,4.1184,4.1248,4.1354,4.1401,4.1533,4.1554,4.1698,4.1698,4.1669,4.1671,4.1746,4.1738,4.1983,4.2017,4.1829,4.1831,4.1832,0,4.0574,4.0657,4.0753,4.0811,4.0859,4.0954,4.1016,4.1053,4.1117,4.1218,4.1283,4.1389,4.1475,4.1645,4.1704,4.1805,4.1807,4.1887,4.1823,4.1811,4.1808,4.1802,4.181,4.1898,4.19,4.1901,4.1903,0,4.0749,4.0766,4.0854,4.095,4.1023,4.1101,4.1178,4.1226,4.1275,4.1347,4.1454,4.1521,4.1655,4.176,4.1865,4.1915,4.1918,4.1922,4.1945,4.1937,4.1916,4.1928,4.1699,4.1916,4.1915,4.1914,4.1913,4.1913,4.0869,4.0942,4.1021,4.1118,4.1179,4.125,4.1326,4.1374,4.1464,4.1574,4.1591,4.1706,4.1788,4.1928,4.1982,4.2074,4.2055,4.2088,4.2097,4.2104,4.2108,4.1902,4.2093,4.2093,4.2093,4.2092,4.2092,0,4.1043,4.1094,4.1183,4.1288,4.1366,4.1359,4.1443,4.1509,4.1609,4.1684,4.1768,4.1892,4.1994,4.2061,4.2165,4.2225,4.2229,4.2251,4.2247,4.2258,4.212,4.2089,4.2246,4.2246,4.2246,4.2246,4.2246,4.2246,4.1143,4.1266,4.1293,4.1447,4.1498,4.1608,4.1657,4.1723,4.1783,4.1919,4.2003,4.2045,4.2118,4.2227,4.2321,4.2338,4.2375,4.2399,4.2415,4.2284,4.2268,4.2253,4.2224,4.2407,4.2407,4.2545,4.2546,4.2547]},{"header":{"parameterUnit":"m.s-1","parameterCategory":1,"la1":30.2991,"la2":30.254,"lo1":-89.0895,"lo2":-89.0444,"dy":0.0017,"dx":0.0017,"nx":28,"ny":28,"refTime":"2024-06-24T09:00:00:Z","depth":0,"parameterNumber":3,"parameterNumberName":"V-component_of_WINDS"},"data":[0,0,0,0,0,0,0,0,0,0,0,0,0,0,0,0,0,0,0,0,0,0,0,0,0,0,0,0,0,0,0,0,0,0,0,0,0,0,0,0,0,0,0,0,0,0,0,0,0,0,0,0,0,0,0,0,0,0,0.6682,0.6681,0,0.6608,0.6607,0.6606,0.6546,0.6545,0.6545,0.6544,0.6469,0.6468,0.6467,0,0,0,0,0,0,0,0,0,0,0,0,0,0.6771,0.677,0.6682,0.6681,0.668,0.6608,0.6607,0.6606,0.6546,0.6545,0.6544,0.6544,0.647,0.6468,0.6466,0,0,0,0,0,0,0,0,0,0,0,0,0,0.6718,0.6769,0.6682,0.6641,0.6637,0.6608,0.6607,0.6606,0.6546,0.6545,0.6544,0.6543,0.647,0.6468,0.6466,0.6472,0,0,0.646,0.6459,0,0,0,0,0,0,0,0,0.6721,0.6715,0.6648,0.6644,0.6639,0.6585,0.6611,0.6561,0.6546,0.6581,0.6544,0.6543,0.6509,0.6503,0.6492,0.6469,0.6466,0.646,0.6458,0.6457,0.6457,0,0,0,0,0,0,0,0.6725,0.6718,0.6653,0.6647,0.6642,0.6627,0.6618,0.6601,0.6551,0.6578,0.6573,0.6565,0.6506,0.6494,0.6489,0.6465,0.646,0.6458,0.6457,0.6456,0.6443,0.6444,0,0,0,0,0,0,0.6735,0.6721,0.6655,0.665,0.6679,0.6626,0.6616,0.6604,0.6551,0.6542,0.6566,0.6563,0.6498,0.6492,0.6487,0.649,0.6457,0.6456,0.6454,0.6442,0.6443,0.6444,0,0,0,0,0,0,0.6737,0.673,0.6658,0.6685,0.6674,0.6626,0.6611,0.6603,0.659,0.6542,0.6533,0.6563,0.6497,0.649,0.6476,0.6487,0.6455,0.6453,0.6441,0.6442,0.6443,0.6498,0,0,0,0,0,0,0.674,0.6731,0.6733,0.6685,0.6673,0.6649,0.6612,0.6602,0.6587,0.6582,0.6537,0.6528,0.6496,0.648,0.6474,0.6483,0.6451,0.644,0.6441,0.6443,0.6495,0.6501,0.6506,0,0,0,0,0,0.6743,0.6751,0.6733,0.6725,0.6675,0.665,0.6643,0.6605,0.6588,0.6589,0.6558,0.653,0.6486,0.6479,0.6472,0.6481,0.6439,0.6441,0.6443,0.6492,0.65,0.6506,0,0,0,0,0,0,0.6802,0.6744,0.6724,0.6716,0.6688,0.664,0.664,0.6614,0.659,0.6587,0.654,0.6531,0.6522,0.65,0.6493,0.6484,0.6459,0.646,0.6499,0.6505,0.6511,0.6517,0.6449,0,0,0,0,0,0.6814,0.6798,0.6749,0.6747,0.6734,0.669,0.6678,0.6651,0.662,0.6608,0.6576,0.6547,0.6527,0.6515,0.6494,0.6491,0.6481,0.6494,0.6499,0.6504,0.6506,0.6503,0.6508,0.6451,0.6451,0.645,0,0,0.6838,0.6805,0.6798,0.6758,0.6733,0.6718,0.668,0.6666,0.6655,0.6606,0.6591,0.6567,0.6532,0.6524,0.6519,0.6505,0.6519,0.6507,0.6511,0.651,0.6505,0.6511,0.6516,0.6452,0.6452,0.6451,0,0,0.6876,0.6849,0.6845,0.682,0.6783,0.6753,0.6752,0.6707,0.6689,0.6674,0.6636,0.6622,0.6588,0.6565,0.6549,0.6577,0.655,0.6571,0.66,0.6598,0.6602,0.6606,0.6616,0.6621,0.6572,0.6572,0.6572,0,0.6911,0.6887,0.6846,0.6834,0.6817,0.6771,0.6767,0.6745,0.6703,0.6693,0.6678,0.6634,0.6607,0.6593,0.66,0.6588,0.6586,0.6576,0.6605,0.6608,0.6611,0.6621,0.6625,0.6575,0.6575,0.6575,0.6574,0,0.6933,0.6917,0.6918,0.6878,0.6861,0.6853,0.681,0.6798,0.6773,0.6745,0.6729,0.6695,0.6666,0.6661,0.6636,0.6643,0.6636,0.6614,0.6588,0.662,0.6628,0.6632,0.6579,0.6578,0.6578,0.6577,0,0,0.7006,0.6943,0.6944,0.6925,0.688,0.6867,0.6856,0.6828,0.6819,0.6791,0.6781,0.6753,0.6732,0.6714,0.6685,0.6683,0.6708,0.6661,0.6659,0.6671,0.6714,0.6732,0.6736,0.6689,0.669,0.669,0.6717,0,0.7037,0.7015,0.6977,0.6968,0.6952,0.6908,0.6899,0.6871,0.6844,0.6827,0.6798,0.6779,0.6752,0.6741,0.6737,0.6706,0.6716,0.6703,0.668,0.668,0.6691,0.674,0.6759,0.6786,0.672,0.672,0.6721,0,0.707,0.7044,0.7034,0.6989,0.6981,0.6974,0.6944,0.6929,0.6895,0.6876,0.6855,0.6824,0.6811,0.6787,0.6768,0.676,0.6748,0.6731,0.6731,0.6728,0.6703,0.6739,0.6794,0.6798,0.6725,0.6725,0.6724,0,0.7124,0.7087,0.7076,0.7061,0.7009,0.7005,0.6983,0.6949,0.6934,0.6908,0.6898,0.6871,0.6857,0.6837,0.6799,0.6785,0.6785,0.6757,0.6769,0.677,0.6771,0.6772,0.6825,0.6763,0.6763,0.6763,0.6762,0,0.7163,0.7158,0.71,0.7093,0.7087,0.7043,0.7037,0.7011,0.6981,0.6969,0.6929,0.6918,0.6869,0.6852,0.6822,0.6811,0.6805,0.6789,0.6782,0.6793,0.6795,0.6785,0.6783,0.6764,0.6763,0.6763,0.6763,0,0.7223,0.7184,0.7169,0.7121,0.7109,0.7106,0.7065,0.7056,0.7027,0.7012,0.7006,0.696,0.6938,0.6898,0.6865,0.6845,0.6841,0.6827,0.6852,0.6848,0.6861,0.6861,0.6911,0.6915,0.685,0.6851,0.6851,0,0.7251,0.7246,0.7197,0.7186,0.7165,0.7148,0.7132,0.7088,0.7074,0.7035,0.7032,0.7007,0.6985,0.6952,0.6916,0.6891,0.6877,0.6896,0.6873,0.6884,0.6877,0.6878,0.6878,0.6902,0.6902,0.6903,0.6904,0,0.7304,0.7284,0.7263,0.7236,0.7218,0.7194,0.7168,0.7161,0.7112,0.7097,0.7074,0.7057,0.7023,0.6999,0.6969,0.6946,0.6917,0.6911,0.6913,0.6925,0.694,0.6932,0.6867,0.6911,0.691,0.6909,0.6909,0.6909,0.7349,0.7342,0.7307,0.7285,0.7261,0.7237,0.7227,0.7196,0.7176,0.7145,0.7121,0.71,0.7066,0.7022,0.7001,0.6984,0.6971,0.6973,0.6973,0.6974,0.6979,0.6942,0.6979,0.6978,0.6978,0.6978,0.6978,0,0.74,0.7375,0.7355,0.732,0.7302,0.7275,0.7245,0.7233,0.7215,0.7186,0.7165,0.7138,0.7115,0.7076,0.705,0.7044,0.703,0.7038,0.7039,0.7034,0.6993,0.6995,0.705,0.705,0.705,0.705,0.705,0.705,0.7425,0.7413,0.7389,0.7365,0.7339,0.7319,0.7304,0.7282,0.7258,0.7231,0.7211,0.7186,0.7153,0.7124,0.7101,0.709,0.7082,0.7095,0.7081,0.7043,0.7037,0.703,0.7032,0.7094,0.7094,0.7123,0.7123,0.7123]}]]